#timestamp,LO_Frequency,Hit,StdDev 
1507089615.7,286046991.4,N
1507089635.5,286046990.7,N
1507089655.3,286046991.8,N
1507089675.2,286046994.1,N
1507089695.0,286046994.6,N
1507089695.9,286046994.6,N
1507089715.7,286046994.4,N
1507089735.6,286046994.5,N
1507089755.4,286046995.8,N
1507089775.2,286046995.0,N
1507089795.1,286046997.9,N
1507089796.0,286046997.9,N
1507089815.8,286046995.1,N
1507089835.6,286046997.8,N
1507089855.5,286046995.5,N
1507089875.3,286046995.3,N
1507089895.1,286046997.3,N
1507089915.9,286046997.0,N
1507089935.7,286046996.6,N
1507089955.5,286046998.7,N
1507089975.4,286046999.0,N
1507089995.2,286046999.6,N
1507090015.0,286046997.5,N
1507090015.9,286046997.5,N
1507090035.8,286046997.4,N
1507090055.6,286046997.9,N
1507090075.4,286046997.4,N
1507090095.2,286046997.9,N
1507090115.1,286046999.4,N
1507090116.0,286046999.4,N
1507090135.8,286046998.5,N
1507090155.6,286046998.7,N
1507090175.5,286046996.7,N
1507090195.3,286046999.3,N
1507090215.1,286046997.4,N
1507090235.9,286046999.3,N
1507090255.7,286046999.7,N
1507090275.5,286047002.8,N
1507090295.4,286046999.8,N
1507090315.2,286047002.4,N
1507090335.0,286047000.0,N
1507090335.9,286047000.0,N
1507090355.8,286047000.9,N
1507090375.6,286047001.5,N
1507090395.4,286047000.4,N
1507090415.2,286047002.0,N
1507090435.1,286047003.5,N
1507090436.0,286047003.5,N
1507090455.8,286047005.7,N
1507090475.6,286047005.2,N
1507090495.5,286047005.4,N
1507090515.3,286047005.1,N
1507090535.1,286047005.9,N
1507090555.9,286047003.4,N
1507090575.7,286047001.4,N
1507090595.5,286047004.2,N
1507090615.4,286047004.5,N
1507090635.2,286047006.9,N
1507090655.0,286047008.7,Y
1507090655.9,286047008.7,P
1507090675.8,286047006.5,N
1507090695.6,286047007.9,N
1507090715.4,286047010.4,Y
1507090735.3,286047002.2,P
1507090755.1,286047000.9,N
1507090775.8,286046999.8,N
1507090795.7,286047005.6,N
1507090815.5,286047006.0,N
1507090835.3,286047002.9,N
1507090855.2,286047006.0,N
1507090875.9,286047001.7,N
1507090895.7,286046999.7,N
1507090915.6,286047000.7,N
1507090935.4,286046996.2,N
1507090955.2,286047000.7,N
1507090975.0,286047003.4,N
1507090975.9,286047003.4,N
1507090995.8,286047006.0,N
1507091015.6,286047001.7,N
1507091035.4,286047005.5,N
1507091055.3,286047004.1,N
1507091075.1,286047007.5,N
1507091095.8,286047005.2,N
1507091115.7,286047003.3,N
1507091135.5,286047002.3,N
1507091155.3,286047003.7,N
1507091175.2,286047001.7,N
1507091195.9,286047004.2,N
1507091215.7,286047003.0,N
1507091235.6,286047001.5,N
1507091255.4,286047003.8,N
1507091275.2,286047002.7,N
1507091295.0,286047000.2,N
1507091296.0,286047000.2,N
1507091315.8,286047000.4,N
1507091335.6,286046999.2,N
1507091355.4,286046996.6,N
1507091375.3,286046997.8,N
1507091395.1,286046998.9,N
1507091415.8,286047000.5,N
1507091435.7,286046998.6,N
1507091455.5,286046998.8,N
1507091475.3,286046998.8,N
1507091495.2,286046998.9,N
1507091515.9,286047002.3,N
1507091535.7,286047001.5,N
1507091555.6,286047001.1,N
1507091575.4,286047002.6,N
1507091595.2,286047001.9,N
1507091615.0,286047002.2,N
1507091616.0,286047002.2,N
1507091635.8,286046998.1,N
1507091655.6,286046998.2,N
1507091675.4,286046998.4,N
1507091695.3,286047002.8,N
1507091715.1,286046997.8,N
1507091735.8,286046993.7,Y
1507091755.7,286046993.7,P
1507091775.5,286046996.3,N
1507091795.3,286046994.4,N
1507091815.2,286046994.0,N
1507091835.9,286046992.0,Y
1507091855.7,286046996.3,P
1507091875.6,286046992.5,P
1507091895.4,286046992.2,P
1507091915.2,286046990.9,Y
1507091935.1,286046995.3,P
1507091936.0,286046995.3,P
1507091955.8,286046994.1,P
1507091975.6,286046993.4,Y
1507091995.5,286047000.6,P
1507092015.3,286047002.1,N
1507092035.1,286047004.3,N
1507092055.9,286047007.5,N
1507092075.7,286047006.1,N
1507092095.5,286047010.0,N
1507092115.4,286047006.6,N
1507092135.2,286047008.0,N
1507092155.0,286047012.3,N
1507092155.9,286047012.3,N
1507092175.8,286047011.5,N
1507092195.6,286047014.0,N
1507092215.4,286047014.9,N
1507092235.3,286047014.8,N
1507092255.1,286047013.3,N
1507092256.0,286047013.3,N
1507092275.8,286047013.1,N
1507092295.7,286047014.9,N
1507092315.5,286047017.0,Y
1507092335.3,286047010.8,P
1507092355.2,286047012.0,P
1507092375.9,286047011.9,P
1507092395.7,286047011.0,Y
1507092415.6,286047000.5,P
1507092435.4,286047002.2,N
1507092455.2,286047003.5,N
1507092475.1,286047005.6,N
1507092476.0,286047005.6,N
1507092495.8,286047004.3,N
1507092515.6,286047002.5,N
1507092535.4,286047002.2,N
1507092555.3,286047002.0,N
1507092575.1,286047005.9,N
1507092595.8,286047001.6,N
1507092615.7,286047003.9,N
1507092635.5,286047003.4,N
1507092655.3,286047003.4,N
1507092675.2,286047004.0,N
1507092695.9,286047003.4,N
1507092715.7,286047004.1,N
1507092735.6,286047003.8,N
1507092755.4,286047006.6,Y
1507092775.2,286047001.7,P
1507092795.1,286046999.8,N
1507092796.0,286046999.8,N
1507092815.8,286047000.7,N
1507092835.6,286047000.8,N
1507092855.5,286046999.6,N
1507092875.3,286046998.7,N
1507092895.1,286047000.6,N
1507092915.9,286047000.0,N
1507092935.7,286046998.2,N
1507092955.5,286047001.8,N
1507092975.3,286047002.2,N
1507092995.2,286047001.6,N
1507093015.9,286047000.5,N
1507093035.7,286046998.3,N
1507093055.6,286046996.9,N
1507093075.4,286046999.2,N
1507093095.2,286046996.5,N
1507093115.1,286046999.1,N
1507093116.0,286046999.1,N
1507093135.8,286047000.7,N
1507093155.6,286047002.8,N
1507093175.5,286047001.6,N
1507093195.3,286047003.8,N
